Time,TemperatureF,DewpointF,PressureIn,WindDirection,WindDirectionDegrees,WindSpeedMPH,WindSpeedGustMPH,Humidity,HourlyPrecipIn,Conditions,Clouds,dailyrainin,SolarRadiationWatts/m^2,SoftwareType,DateUTC
2013-01-19 00:32:00,40.0,18.0,-100.00,WNW,285,9.0,18.0,41,0.00,,,-99.99,0.000000,,2013-01-19 07:32:00,
2013-01-19 00:42:00,40.0,18.0,-100.00,WNW,285,9.0,18.0,41,0.00,,,-99.99,0.000000,,2013-01-19 07:42:00,
2013-01-19 00:52:00,40.0,18.0,-100.00,WNW,285,9.0,18.0,41,0.00,,,-99.99,0.000000,,2013-01-19 07:52:00,
2013-01-19 01:22:00,42.0,19.0,-100.00,WNW,290,9.0,17.0,39,0.00,,,0.00,0.000000,,2013-01-19 08:22:00,
2013-01-19 01:32:00,42.0,19.0,-100.00,WNW,290,9.0,17.0,39,0.00,,,0.00,0.000000,,2013-01-19 08:32:00,
2013-01-19 01:42:00,42.0,19.0,-100.00,WNW,290,9.0,17.0,39,0.00,,,0.00,0.000000,,2013-01-19 08:42:00,
2013-01-19 01:52:00,42.0,19.0,-100.00,WNW,290,9.0,17.0,39,0.00,,,0.00,0.000000,,2013-01-19 08:52:00,
2013-01-19 02:22:00,36.0,17.0,-100.00,SSE,149,3.0,14.0,46,0.00,,,-99.99,0.000000,,2013-01-19 09:22:00,
2013-01-19 02:32:00,36.0,17.0,-100.00,SSE,149,3.0,14.0,46,0.00,,,-99.99,0.000000,,2013-01-19 09:32:00,
2013-01-19 02:42:00,36.0,17.0,-100.00,SSE,149,3.0,14.0,46,0.00,,,-99.99,0.000000,,2013-01-19 09:42:00,
2013-01-19 02:52:00,36.0,17.0,-100.00,SSE,149,3.0,14.0,46,0.00,,,-99.99,0.000000,,2013-01-19 09:52:00,
2013-01-19 03:22:00,38.0,19.0,-100.00,ESE,107,4.0,8.0,45,0.00,,,0.00,0.000000,,2013-01-19 10:22:00,
2013-01-19 03:32:00,38.0,19.0,-100.00,ESE,107,4.0,8.0,45,0.00,,,0.00,0.000000,,2013-01-19 10:32:00,
2013-01-19 03:42:00,38.0,19.0,-100.00,ESE,107,4.0,8.0,45,0.00,,,0.00,0.000000,,2013-01-19 10:42:00,
2013-01-19 03:52:00,38.0,19.0,-100.00,ESE,107,4.0,8.0,45,0.00,,,0.00,0.000000,,2013-01-19 10:52:00,
2013-01-19 05:48:00,38.0,13.0,-100.00,SW,218,5.0,14.0,35,0.00,,,0.00,0.000000,,2013-01-19 12:48:00,
2013-01-19 06:22:00,34.0,13.0,-100.00,South,190,6.0,12.0,41,0.00,,,0.00,0.000000,,2013-01-19 13:22:00,
2013-01-19 06:33:00,34.0,13.0,-100.00,South,190,6.0,12.0,41,0.00,,,0.00,0.000000,,2013-01-19 13:33:00,
2013-01-19 06:42:00,34.0,13.0,-100.00,South,190,6.0,12.0,41,0.00,,,0.00,0.000000,,2013-01-19 13:42:00,
2013-01-19 06:52:00,34.0,13.0,-100.00,South,190,6.0,12.0,41,0.00,,,0.00,0.000000,,2013-01-19 13:52:00,
2013-01-19 07:22:00,35.0,15.0,-100.00,SW,217,3.0,12.0,44,0.00,,,0.00,0.000000,,2013-01-19 14:22:00,
2013-01-19 07:33:00,35.0,15.0,-100.00,SW,217,3.0,12.0,44,0.00,,,0.00,0.000000,,2013-01-19 14:33:00,
2013-01-19 07:42:00,35.0,15.0,-100.00,SW,217,3.0,12.0,44,0.00,,,0.00,0.000000,,2013-01-19 14:42:00,
2013-01-19 07:53:00,35.0,15.0,-100.00,SW,217,3.0,12.0,44,0.00,,,0.00,0.000000,,2013-01-19 14:53:00,
2013-01-19 08:22:00,37.0,15.0,-100.00,North,358,5.0,25.0,40,0.00,,,0.00,4.000000,,2013-01-19 15:22:00,
2013-01-19 08:33:00,37.0,15.0,-100.00,North,358,5.0,25.0,40,0.00,,,0.00,4.000000,,2013-01-19 15:33:00,
2013-01-19 08:43:00,37.0,15.0,-100.00,North,358,5.0,25.0,40,0.00,,,0.00,4.000000,,2013-01-19 15:43:00,
2013-01-19 08:53:00,37.0,15.0,-100.00,North,358,5.0,25.0,40,0.00,,,0.00,4.000000,,2013-01-19 15:53:00,
2013-01-19 09:23:00,37.0,17.0,-100.00,North,356,9.0,14.0,44,0.00,,,-99.99,97.000000,,2013-01-19 16:23:00,
2013-01-19 09:33:00,37.0,17.0,-100.00,North,356,9.0,14.0,44,0.00,,,-99.99,97.000000,,2013-01-19 16:33:00,
2013-01-19 09:43:00,37.0,17.0,-100.00,North,356,9.0,14.0,44,0.00,,,-99.99,97.000000,,2013-01-19 16:43:00,
2013-01-19 09:53:00,37.0,17.0,-100.00,North,356,9.0,14.0,44,0.00,,,-99.99,97.000000,,2013-01-19 16:53:00,
2013-01-19 10:27:00,38.0,22.0,-100.00,North,355,7.0,14.0,51,0.00,,,0.00,153.000000,,2013-01-19 17:27:00,
2013-01-19 10:34:00,38.0,22.0,-100.00,North,355,7.0,14.0,51,0.00,,,0.00,153.000000,,2013-01-19 17:34:00,
2013-01-19 10:53:00,38.0,22.0,-100.00,North,355,7.0,14.0,51,0.00,,,0.00,153.000000,,2013-01-19 17:53:00,
2013-01-19 11:25:00,39.0,22.0,-100.00,NNE,26,8.0,14.0,51,0.00,,,0.00,286.000000,,2013-01-19 18:25:00,
2013-01-19 11:34:00,39.0,22.0,-100.00,NNE,26,8.0,14.0,51,0.00,,,0.00,286.000000,,2013-01-19 18:34:00,
2013-01-19 11:44:00,39.0,22.0,-100.00,NNE,26,8.0,14.0,51,0.00,,,0.00,286.000000,,2013-01-19 18:44:00,
2013-01-19 11:53:00,39.0,22.0,-100.00,NNE,26,8.0,14.0,51,0.00,,,0.00,286.000000,,2013-01-19 18:53:00,
2013-01-19 12:38:00,38.0,24.0,-100.00,NNE,30,7.0,14.0,57,0.00,,,0.00,372.000000,,2013-01-19 19:38:00,
2013-01-19 12:44:00,38.0,24.0,-100.00,NNE,30,7.0,14.0,57,0.00,,,0.00,372.000000,,2013-01-19 19:44:00,
2013-01-19 12:54:00,38.0,24.0,-100.00,NNE,30,7.0,14.0,57,0.00,,,0.00,372.000000,,2013-01-19 19:54:00,
2013-01-19 13:24:00,36.0,24.0,-100.00,NNE,22,8.0,13.0,61,0.00,,,0.00,303.000000,,2013-01-19 20:24:00,
2013-01-19 13:36:00,36.0,24.0,-100.00,NNE,22,8.0,13.0,61,0.00,,,0.00,303.000000,,2013-01-19 20:36:00,
2013-01-19 13:44:00,36.0,24.0,-100.00,NNE,22,8.0,13.0,61,0.00,,,0.00,303.000000,,2013-01-19 20:44:00,
2013-01-19 13:54:00,36.0,24.0,-100.00,NNE,22,8.0,13.0,61,0.00,,,0.00,303.000000,,2013-01-19 20:54:00,
2013-01-19 14:24:00,37.0,25.0,-100.00,NE,41,6.0,12.0,61,0.00,,,0.00,320.000000,,2013-01-19 21:24:00,
2013-01-19 14:54:00,37.0,25.0,-100.00,NE,41,6.0,12.0,61,0.00,,,0.00,320.000000,,2013-01-19 21:54:00,
2013-01-19 15:25:00,36.0,24.0,-100.00,NNE,18,4.0,8.0,61,0.00,,,0.00,177.000000,,2013-01-19 22:25:00,
2013-01-19 15:34:00,36.0,24.0,-100.00,NNE,18,4.0,8.0,61,0.00,,,0.00,177.000000,,2013-01-19 22:34:00,
2013-01-19 15:45:00,36.0,24.0,-100.00,NNE,18,4.0,8.0,61,0.00,,,0.00,177.000000,,2013-01-19 22:45:00,
2013-01-19 15:54:00,36.0,24.0,-100.00,NNE,18,4.0,8.0,61,0.00,,,0.00,177.000000,,2013-01-19 22:54:00,
2013-01-19 16:24:00,34.0,23.0,-100.00,NNE,12,4.0,6.0,64,0.00,,,0.00,116.000000,,2013-01-19 23:24:00,
2013-01-19 16:34:00,34.0,23.0,-100.00,NNE,12,4.0,6.0,64,0.00,,,0.00,116.000000,,2013-01-19 23:34:00,
2013-01-19 16:44:00,34.0,23.0,-100.00,NNE,12,4.0,6.0,64,0.00,,,0.00,116.000000,,2013-01-19 23:44:00,
2013-01-19 17:24:00,32.0,22.0,-100.00,NE,53,4.0,6.0,67,0.00,,,0.00,28.000000,,2013-01-20 00:24:00,
2013-01-19 17:34:00,32.0,22.0,-100.00,NE,53,4.0,6.0,67,0.00,,,0.00,28.000000,,2013-01-20 00:34:00,
2013-01-19 17:45:00,32.0,22.0,-100.00,NE,53,4.0,6.0,67,0.00,,,0.00,28.000000,,2013-01-20 00:45:00,
2013-01-19 17:53:00,32.0,22.0,-100.00,NE,53,4.0,6.0,67,0.00,,,0.00,28.000000,,2013-01-20 00:53:00,
2013-01-19 18:35:00,31.0,23.0,-100.00,ESE,110,5.0,7.0,71,0.00,,,0.00,1.000000,,2013-01-20 01:35:00,
2013-01-19 18:45:00,31.0,23.0,-100.00,ESE,110,5.0,7.0,71,0.00,,,0.00,1.000000,,2013-01-20 01:45:00,
2013-01-19 19:25:00,27.0,21.0,-100.00,SE,140,7.0,8.0,77,0.00,,,0.00,0.000000,,2013-01-20 02:25:00,
2013-01-19 19:34:00,27.0,21.0,-100.00,SE,140,7.0,8.0,77,0.00,,,0.00,0.000000,,2013-01-20 02:34:00,
2013-01-19 19:43:00,27.0,21.0,-100.00,SE,140,7.0,8.0,77,0.00,,,0.00,0.000000,,2013-01-20 02:43:00,
2013-01-19 19:54:00,27.0,21.0,-100.00,SE,140,7.0,8.0,77,0.00,,,0.00,0.000000,,2013-01-20 02:54:00,
2013-01-19 20:24:00,26.0,20.0,-100.00,SE,127,6.0,9.0,78,0.00,,,0.00,0.000000,,2013-01-20 03:24:00,
2013-01-19 20:36:00,26.0,20.0,-100.00,SE,127,6.0,9.0,78,0.00,,,0.00,0.000000,,2013-01-20 03:36:00,
2013-01-19 20:44:00,26.0,20.0,-100.00,SE,127,6.0,9.0,78,0.00,,,0.00,0.000000,,2013-01-20 03:44:00,
2013-01-19 20:53:00,26.0,20.0,-100.00,SE,127,6.0,9.0,78,0.00,,,0.00,0.000000,,2013-01-20 03:53:00,
2013-01-19 21:24:00,25.0,19.0,-100.00,SE,137,6.0,9.0,79,0.00,,,0.00,0.000000,,2013-01-20 04:24:00,
2013-01-19 21:34:00,25.0,19.0,-100.00,SE,137,6.0,9.0,79,0.00,,,0.00,0.000000,,2013-01-20 04:34:00,
2013-01-19 21:43:00,25.0,19.0,-100.00,SE,137,6.0,9.0,79,0.00,,,0.00,0.000000,,2013-01-20 04:43:00,
2013-01-19 21:53:00,25.0,19.0,-100.00,SE,137,6.0,9.0,79,0.00,,,0.00,0.000000,,2013-01-20 04:53:00,
2013-01-19 22:22:00,22.0,18.0,-100.00,SSE,152,6.0,8.0,83,0.00,,,0.00,0.000000,,2013-01-20 05:22:00,
2013-01-19 22:32:00,22.0,18.0,-100.00,SSE,152,6.0,8.0,83,0.00,,,0.00,0.000000,,2013-01-20 05:32:00,
2013-01-19 22:42:00,22.0,18.0,-100.00,SSE,152,6.0,8.0,83,0.00,,,0.00,0.000000,,2013-01-20 05:42:00,
2013-01-19 22:52:00,22.0,18.0,-100.00,SSE,152,6.0,8.0,83,0.00,,,0.00,0.000000,,2013-01-20 05:52:00,
2013-01-19 23:22:00,22.0,19.0,-100.00,SE,137,7.0,11.0,88,0.00,,,0.00,0.000000,,2013-01-20 06:22:00,
2013-01-19 23:33:00,22.0,19.0,-100.00,SE,137,7.0,11.0,88,0.00,,,0.00,0.000000,,2013-01-20 06:33:00,
2013-01-19 23:42:00,22.0,19.0,-100.00,SE,137,7.0,11.0,88,0.00,,,0.00,0.000000,,2013-01-20 06:42:00,
2013-01-19 23:52:00,22.0,19.0,-100.00,SE,137,7.0,11.0,88,0.00,,,0.00,0.000000,,2013-01-20 06:52:00,